Time,TemperatureF,DewpointF,PressureIn,WindDirection,WindDirectionDegrees,WindSpeedMPH,WindSpeedGustMPH,Humidity,HourlyPrecipIn,Conditions,Clouds,dailyrainin,SoftwareType,DateUTC
2013-11-30 00:00:00,32.8,25.8,30.28,SSE,148,6.0,21.0,75,0.00,,---,0.00,VWS V14.01,2013-11-30 06:00:00,
2013-11-30 00:05:00,32.8,25.8,30.28,SSE,148,6.0,21.0,75,0.00,,---,0.00,VWS V14.01,2013-11-30 06:05:00,
2013-11-30 00:30:00,32.5,25.8,30.26,SE,130,9.0,15.0,76,0.00,,---,0.00,VWS V14.01,2013-11-30 06:30:00,
2013-11-30 00:35:00,32.5,25.8,30.26,SE,130,9.0,15.0,76,0.00,,---,0.00,VWS V14.01,2013-11-30 06:35:00,
2013-11-30 01:00:00,32.1,25.7,30.25,SSE,149,3.0,12.0,77,0.00,,---,0.00,VWS V14.01,2013-11-30 07:00:00,
2013-11-30 01:05:00,32.1,25.7,30.25,SSE,149,3.0,12.0,77,0.00,,---,0.00,VWS V14.01,2013-11-30 07:05:00,
2013-11-30 01:30:00,31.7,25.3,30.24,South,175,6.0,9.0,77,0.00,,---,0.00,VWS V14.01,2013-11-30 07:30:00,
2013-11-30 01:35:00,31.7,25.3,30.24,South,175,6.0,9.0,77,0.00,,---,0.00,VWS V14.01,2013-11-30 07:35:00,
2013-11-30 02:00:00,31.5,25.4,30.23,South,171,3.0,12.0,78,0.00,,---,0.00,VWS V14.01,2013-11-30 08:00:00,
2013-11-30 02:05:00,31.5,25.4,30.23,South,171,3.0,12.0,78,0.00,,---,0.00,VWS V14.01,2013-11-30 08:05:00,
2013-11-30 02:30:00,31.4,25.6,30.22,SE,142,0.0,9.0,79,0.00,,---,0.00,VWS V14.01,2013-11-30 08:30:00,
2013-11-30 02:35:00,31.4,25.6,30.22,SE,142,0.0,9.0,79,0.00,,---,0.00,VWS V14.01,2013-11-30 08:35:00,
2013-11-30 03:00:00,31.1,25.4,30.21,SSE,157,3.0,9.0,79,0.00,,---,0.00,VWS V14.01,2013-11-30 09:00:00,
2013-11-30 03:05:00,31.1,25.4,30.21,SSE,157,3.0,9.0,79,0.00,,---,0.00,VWS V14.01,2013-11-30 09:05:00,
2013-11-30 03:30:00,30.9,25.5,30.20,SE,146,6.0,9.0,80,0.00,,---,0.00,VWS V14.01,2013-11-30 09:30:00,
2013-11-30 03:35:00,30.9,25.5,30.20,SE,146,6.0,9.0,80,0.00,,---,0.00,VWS V14.01,2013-11-30 09:35:00,
2013-11-30 04:00:00,30.6,25.2,30.19,SSE,150,0.0,9.0,80,0.00,,---,0.00,VWS V14.01,2013-11-30 10:00:00,
2013-11-30 04:05:00,30.6,25.2,30.19,SSE,150,0.0,9.0,80,0.00,,---,0.00,VWS V14.01,2013-11-30 10:05:00,
2013-11-30 04:30:00,30.0,24.9,30.18,SSE,153,0.0,9.0,81,0.00,,---,0.00,VWS V14.01,2013-11-30 10:30:00,
2013-11-30 04:35:00,30.0,24.9,30.18,SSE,153,0.0,9.0,81,0.00,,---,0.00,VWS V14.01,2013-11-30 10:35:00,
2013-11-30 05:00:00,29.7,24.9,30.18,SSE,153,3.0,6.0,82,0.00,,---,0.00,VWS V14.01,2013-11-30 11:00:00,
2013-11-30 05:05:00,29.7,24.9,30.18,SSE,153,3.0,6.0,82,0.00,,---,0.00,VWS V14.01,2013-11-30 11:05:00,
2013-11-30 05:30:00,29.5,24.7,30.17,SSE,156,3.0,9.0,82,0.00,,---,0.00,VWS V14.01,2013-11-30 11:30:00,
2013-11-30 05:35:00,29.5,24.7,30.17,SSE,156,3.0,9.0,82,0.00,,---,0.00,VWS V14.01,2013-11-30 11:35:00,
2013-11-30 06:00:00,29.6,24.8,30.17,SSE,156,6.0,6.0,82,0.00,,---,0.00,VWS V14.01,2013-11-30 12:00:00,
2013-11-30 06:05:00,29.6,24.8,30.17,SSE,156,6.0,6.0,82,0.00,,---,0.00,VWS V14.01,2013-11-30 12:05:00,
2013-11-30 06:30:00,29.8,25.0,30.16,SE,146,3.0,9.0,82,0.00,,---,0.00,VWS V14.01,2013-11-30 12:30:00,
2013-11-30 06:35:00,29.8,25.0,30.16,SE,146,3.0,9.0,82,0.00,,---,0.00,VWS V14.01,2013-11-30 12:35:00,
2013-11-30 07:00:00,30.6,25.2,30.16,SSE,153,3.0,12.0,80,0.00,,---,0.00,VWS V14.01,2013-11-30 13:00:00,
2013-11-30 07:05:00,30.6,25.2,30.16,SSE,153,3.0,12.0,80,0.00,,---,0.00,VWS V14.01,2013-11-30 13:05:00,
2013-11-30 07:30:00,30.7,25.3,30.17,South,180,3.0,12.0,80,0.00,,---,0.00,VWS V14.01,2013-11-30 13:30:00,
2013-11-30 07:35:00,30.7,25.3,30.17,South,180,3.0,12.0,80,0.00,,---,0.00,VWS V14.01,2013-11-30 13:35:00,
2013-11-30 08:00:00,32.5,26.1,30.16,South,188,6.0,12.0,77,0.00,,---,0.00,VWS V14.01,2013-11-30 14:00:00,
2013-11-30 08:05:00,32.5,26.1,30.16,South,188,6.0,12.0,77,0.00,,---,0.00,VWS V14.01,2013-11-30 14:05:00,
2013-11-30 08:30:00,34.5,27.1,30.17,South,184,3.0,12.0,74,0.00,,---,0.00,VWS V14.01,2013-11-30 14:30:00,
2013-11-30 08:35:00,34.5,27.1,30.17,South,184,3.0,12.0,74,0.00,,---,0.00,VWS V14.01,2013-11-30 14:35:00,
2013-11-30 09:00:00,36.1,27.6,30.16,SW,218,9.0,18.0,71,0.00,,---,0.00,VWS V14.01,2013-11-30 15:00:00,
2013-11-30 09:05:00,36.1,27.6,30.16,SW,218,9.0,18.0,71,0.00,,---,0.00,VWS V14.01,2013-11-30 15:05:00,
2013-11-30 09:30:00,37.9,28.6,30.16,SW,229,3.0,24.0,69,0.00,,---,0.00,VWS V14.01,2013-11-30 15:30:00,
2013-11-30 09:35:00,37.9,28.6,30.16,SW,229,3.0,24.0,69,0.00,,---,0.00,VWS V14.01,2013-11-30 15:35:00,
2013-11-30 10:00:00,39.8,29.8,30.16,SW,224,6.0,24.0,67,0.00,,---,0.00,VWS V14.01,2013-11-30 16:00:00,
2013-11-30 10:05:00,39.8,29.8,30.16,SW,224,6.0,24.0,67,0.00,,---,0.00,VWS V14.01,2013-11-30 16:05:00,
2013-11-30 10:30:00,41.8,30.1,30.15,SSW,194,9.0,24.0,63,0.00,,---,0.00,VWS V14.01,2013-11-30 16:30:00,
2013-11-30 10:35:00,41.8,30.1,30.15,SSW,194,9.0,24.0,63,0.00,,---,0.00,VWS V14.01,2013-11-30 16:35:00,
2013-11-30 11:00:00,43.7,30.7,30.14,WSW,255,12.0,24.0,60,0.00,,---,0.00,VWS V14.01,2013-11-30 17:00:00,
2013-11-30 11:05:00,43.7,30.7,30.14,WSW,255,12.0,24.0,60,0.00,,---,0.00,VWS V14.01,2013-11-30 17:05:00,
2013-11-30 11:30:00,45.8,31.5,30.13,WSW,256,9.0,21.0,57,0.00,,---,0.00,VWS V14.01,2013-11-30 17:30:00,
2013-11-30 11:35:00,45.8,31.5,30.13,WSW,256,9.0,21.0,57,0.00,,---,0.00,VWS V14.01,2013-11-30 17:35:00,
2013-11-30 12:00:00,47.5,31.7,30.12,WNW,283,12.0,21.0,54,0.00,,---,0.00,VWS V14.01,2013-11-30 18:00:00,
2013-11-30 12:05:00,47.5,31.7,30.12,WNW,283,12.0,21.0,54,0.00,,---,0.00,VWS V14.01,2013-11-30 18:05:00,
2013-11-30 12:30:00,48.6,32.3,30.11,SW,232,6.0,27.0,53,0.00,,---,0.00,VWS V14.01,2013-11-30 18:30:00,
2013-11-30 12:35:00,48.6,32.3,30.11,SW,232,6.0,27.0,53,0.00,,---,0.00,VWS V14.01,2013-11-30 18:35:00,
2013-11-30 13:00:00,50.3,32.9,30.10,WNW,286,6.0,21.0,51,0.00,,---,0.00,VWS V14.01,2013-11-30 19:00:00,
2013-11-30 13:05:00,50.3,32.9,30.10,WNW,286,6.0,21.0,51,0.00,,---,0.00,VWS V14.01,2013-11-30 19:05:00,
2013-11-30 13:30:00,51.7,33.7,30.09,SSW,200,3.0,15.0,50,0.00,,---,0.00,VWS V14.01,2013-11-30 19:30:00,
2013-11-30 13:35:00,51.7,33.7,30.09,SSW,200,3.0,15.0,50,0.00,,---,0.00,VWS V14.01,2013-11-30 19:35:00,
2013-11-30 14:00:00,52.4,33.8,30.09,WSW,253,3.0,18.0,49,0.00,,---,0.00,VWS V14.01,2013-11-30 20:00:00,
2013-11-30 14:05:00,52.4,33.8,30.09,WSW,253,3.0,18.0,49,0.00,,---,0.00,VWS V14.01,2013-11-30 20:05:00,
2013-11-30 14:30:00,53.0,33.8,30.08,WNW,298,6.0,15.0,48,0.00,,---,0.00,VWS V14.01,2013-11-30 20:30:00,
2013-11-30 14:35:00,53.0,33.8,30.08,WNW,298,6.0,15.0,48,0.00,,---,0.00,VWS V14.01,2013-11-30 20:35:00,
2013-11-30 15:00:00,52.7,33.6,30.09,NNW,330,3.0,15.0,48,0.00,,---,0.00,VWS V14.01,2013-11-30 21:00:00,
2013-11-30 15:05:00,52.7,33.6,30.09,NNW,330,3.0,15.0,48,0.00,,---,0.00,VWS V14.01,2013-11-30 21:05:00,
2013-11-30 15:30:00,52.3,33.7,30.09,NW,309,3.0,9.0,49,0.00,,---,0.00,VWS V14.01,2013-11-30 21:30:00,
2013-11-30 15:35:00,52.3,33.7,30.09,NW,309,3.0,9.0,49,0.00,,---,0.00,VWS V14.01,2013-11-30 21:35:00,
2013-11-30 16:00:00,51.0,33.5,30.09,NW,308,0.0,6.0,51,0.00,,---,0.00,VWS V14.01,2013-11-30 22:00:00,
2013-11-30 16:05:00,51.0,33.5,30.09,NW,308,0.0,6.0,51,0.00,,---,0.00,VWS V14.01,2013-11-30 22:05:00,
2013-11-30 16:30:00,48.9,33.5,30.09,NW,308,0.0,6.0,55,0.00,,---,0.00,VWS V14.01,2013-11-30 22:30:00,
2013-11-30 16:35:00,48.9,33.5,30.09,NW,308,0.0,6.0,55,0.00,,---,0.00,VWS V14.01,2013-11-30 22:35:00,
2013-11-30 17:00:00,46.2,32.7,30.10,NW,308,0.0,6.0,59,0.00,,---,0.00,VWS V14.01,2013-11-30 23:00:00,
2013-11-30 17:05:00,46.2,32.7,30.10,NW,308,0.0,6.0,59,0.00,,---,0.00,VWS V14.01,2013-11-30 23:05:00,
2013-11-30 17:30:00,43.9,32.9,30.11,NW,308,0.0,3.0,65,0.00,,---,0.00,VWS V14.01,2013-11-30 23:30:00,
2013-11-30 17:35:00,43.9,32.9,30.11,NW,308,0.0,3.0,65,0.00,,---,0.00,VWS V14.01,2013-11-30 23:35:00,
2013-11-30 18:00:00,42.3,32.9,30.12,NW,308,0.0,0.0,69,0.00,,---,0.00,VWS V14.01,2013-12-01 00:00:00,
2013-11-30 18:05:00,42.3,32.9,30.12,NW,308,0.0,0.0,69,0.00,,---,0.00,VWS V14.01,2013-12-01 00:05:00,
2013-11-30 18:30:00,41.2,32.5,30.12,NW,308,0.0,0.0,71,0.00,,---,0.00,VWS V14.01,2013-12-01 00:30:00,
2013-11-30 18:35:00,41.2,32.5,30.12,NW,308,0.0,0.0,71,0.00,,---,0.00,VWS V14.01,2013-12-01 00:35:00,
2013-11-30 19:00:00,39.5,32.2,30.12,NW,308,0.0,3.0,75,0.00,,---,0.00,VWS V14.01,2013-12-01 01:00:00,
2013-11-30 19:05:00,39.5,32.2,30.12,NW,308,0.0,3.0,75,0.00,,---,0.00,VWS V14.01,2013-12-01 01:05:00,
2013-11-30 19:30:00,37.3,31.1,30.12,NW,308,0.0,0.0,78,0.00,,---,0.00,VWS V14.01,2013-12-01 01:30:00,
2013-11-30 19:35:00,37.3,31.1,30.12,NW,308,0.0,0.0,78,0.00,,---,0.00,VWS V14.01,2013-12-01 01:35:00,
2013-11-30 20:00:00,35.7,31.0,30.12,NW,308,0.0,0.0,83,0.00,,---,0.00,VWS V14.01,2013-12-01 02:00:00,
2013-11-30 20:05:00,35.7,31.0,30.12,NW,308,0.0,0.0,83,0.00,,---,0.00,VWS V14.01,2013-12-01 02:05:00,
2013-11-30 20:30:00,35.6,31.0,30.13,NW,308,0.0,0.0,83,0.00,,---,0.00,VWS V14.01,2013-12-01 02:30:00,
2013-11-30 20:35:00,35.6,31.0,30.13,NW,308,0.0,0.0,83,0.00,,---,0.00,VWS V14.01,2013-12-01 02:35:00,
2013-11-30 21:00:00,35.2,30.9,30.13,NW,308,0.0,6.0,84,0.00,,---,0.00,VWS V14.01,2013-12-01 03:00:00,
2013-11-30 21:05:00,35.2,30.9,30.13,NW,308,0.0,6.0,84,0.00,,---,0.00,VWS V14.01,2013-12-01 03:05:00,
2013-11-30 21:30:00,33.7,29.7,30.14,NW,308,3.0,6.0,85,0.00,,---,0.00,VWS V14.01,2013-12-01 03:30:00,
2013-11-30 21:35:00,33.7,29.7,30.14,NW,308,3.0,6.0,85,0.00,,---,0.00,VWS V14.01,2013-12-01 03:35:00,
2013-11-30 22:00:00,34.9,30.0,30.14,North,5,3.0,12.0,82,0.00,,---,0.00,VWS V14.01,2013-12-01 04:00:00,
2013-11-30 22:05:00,34.9,30.0,30.14,North,5,3.0,12.0,82,0.00,,---,0.00,VWS V14.01,2013-12-01 04:05:00,
2013-11-30 22:30:00,33.0,29.0,30.15,North,5,3.0,6.0,85,0.00,,---,0.00,VWS V14.01,2013-12-01 04:30:00,
2013-11-30 22:35:00,33.0,29.0,30.15,North,5,3.0,6.0,85,0.00,,---,0.00,VWS V14.01,2013-12-01 04:35:00,
2013-11-30 23:00:00,32.9,28.9,30.16,North,5,3.0,6.0,85,0.00,,---,0.00,VWS V14.01,2013-12-01 05:00:00,
2013-11-30 23:05:00,32.9,28.9,30.16,North,5,3.0,6.0,85,0.00,,---,0.00,VWS V14.01,2013-12-01 05:05:00,
2013-11-30 23:30:00,32.1,28.1,30.15,North,5,0.0,6.0,85,0.00,,---,0.00,VWS V14.01,2013-12-01 05:30:00,
2013-11-30 23:35:00,32.1,28.1,30.15,North,5,0.0,6.0,85,0.00,,---,0.00,VWS V14.01,2013-12-01 05:35:00,